Lapse_Rate
7.8 7.9 7.8 8.0 7.9 7.7 7.4 7.1 6.9 6.7 6.6 6.5 6.4 6.2 6.0 6.0 5.8 5.6 5.4 5.4 5.5 5.7 5.6 5.6 5.6 5.8 6.0 6.3 6.3 6.5 6.6 6.5
7.7 7.9 7.8 7.9 7.9 7.8 7.5 7.3 7.0 6.9 6.7 6.7 6.6 6.4 6.2 6.1 6.0 5.8 5.5 5.4 5.4 5.5 5.5 5.5 5.6 5.7 5.9 6.2 6.3 6.2 6.2 6.2
7.7 7.8 7.8 7.7 7.9 7.9 7.7 7.5 7.3 7.1 6.8 6.7 6.7 6.5 6.4 6.2 6.1 5.9 5.7 5.5 5.4 5.3 5.3 5.3 5.5 5.7 5.9 6.1 6.2 6.2 6.1 6.2
7.8 7.6 7.8 7.8 7.8 7.8 7.8 7.6 7.4 7.2 6.9 6.7 6.6 6.6 6.4 6.3 6.3 6.1 5.8 5.7 5.4 5.3 5.2 5.2 5.4 5.6 5.8 6.1 6.1 6.0 6.1 6.0
7.6 7.7 7.6 7.8 7.7 7.7 7.8 7.7 7.6 7.3 7.0 6.8 6.7 6.6 6.5 6.5 6.4 6.3 6.0 5.9 5.7 5.5 5.3 5.1 5.2 5.4 5.7 6.0 6.2 6.0 6.2 5.9
7.7 7.5 7.6 7.7 7.7 7.7 7.8 7.8 7.7 7.5 7.2 7.0 6.9 6.7 6.6 6.5 6.6 6.5 6.3 6.1 5.9 5.6 5.3 5.1 5.0 5.2 5.6 5.7 6.1 6.0 6.0 6.0
7.4 7.3 7.6 7.5 7.5 7.6 7.7 7.8 7.7 7.4 7.3 7.2 7.0 6.8 6.7 6.6 6.7 6.7 6.6 6.5 6.1 5.9 5.4 5.1 5.1 5.2 5.5 5.7 5.8 6.1 6.0 6.1
7.6 7.3 7.5 7.4 7.5 7.5 7.5 7.5 7.5 7.5 7.4 7.3 7.1 6.9 6.8 6.7 6.8 6.8 6.9 6.8 6.5 6.2 5.7 5.4 5.3 5.3 5.5 5.7 5.8 5.9 6.1 6.0
7.6 7.2 7.4 7.6 7.4 7.3 7.1 7.3 7.4 7.5 7.4 7.3 7.2 7.0 6.9 6.8 6.9 6.9 6.9 6.9 6.8 6.5 6.2 5.8 5.6 5.5 5.7 5.8 5.9 5.8 6.0 6.0
7.5 7.4 7.4 7.8 7.9 7.3 7.0 7.1 7.3 7.4 7.4 7.2 7.2 7.2 7.1 6.9 7.0 7.0 6.9 7.0 7.0 6.8 6.6 6.3 5.9 5.7 5.7 5.8 5.8 5.8 5.8 5.8
7.6 7.4 7.4 7.7 8.0 7.7 7.2 7.0 7.2 7.2 7.2 7.3 7.2 7.3 7.4 7.1 7.1 7.0 7.0 7.0 7.1 7.0 6.9 6.6 6.2 5.8 5.7 5.7 5.7 5.6 5.8 5.9
7.6 7.4 7.5 7.6 7.6 7.6 7.4 7.3 7.3 7.2 7.1 7.1 7.2 7.2 7.3 7.2 7.1 7.2 7.1 7.1 7.1 7.1 7.0 6.8 6.4 6.0 5.8 5.9 5.7 5.7 5.7 6.0
7.8 7.5 7.4 7.7 7.5 7.6 7.7 7.7 7.7 7.4 7.4 7.2 7.3 7.3 7.3 7.1 7.0 7.3 7.2 7.1 7.1 7.1 7.1 7.1 6.8 6.3 6.0 5.9 5.8 5.7 5.9 5.9
7.9 7.6 7.6 7.6 7.5 7.6 7.8 7.8 7.7 7.7 7.3 7.4 7.2 7.3 7.3 7.1 7.2 7.5 7.4 7.2 7.2 7.2 7.1 7.1 7.0 6.6 6.5 6.1 6.2 5.6 6.0 5.6
7.7 7.5 7.9 7.7 7.7 7.7 7.7 7.6 7.4 7.5 7.4 7.4 7.7 7.6 7.7 7.6 7.6 7.5 7.6 7.2 7.2 7.3 7.2 7.1 7.1 6.9 6.8 6.2 6.1 6.2 5.6 5.8
7.3 7.3 7.7 7.7 7.5 7.4 7.3 7.4 7.5 7.6 7.7 7.7 7.3 7.3 7.7 7.4 7.1 7.4 7.4 7.0 7.4 7.4 7.3 7.3 7.1 7.2 6.9 6.8 6.4 6.0 5.2 5.4
7.2 7.1 7.5 8.1 8.0 7.5 7.4 7.2 7.3 7.2 7.3 7.3 7.4 7.1 7.3 7.4 7.1 6.9 6.9 7.1 7.2 7.5 7.5 7.2 7.1 7.2 7.2 7.0 6.6 5.8 5.4 5.2
7.6 8.1 8.1 8.2 8.2 7.8 7.6 7.4 7.2 7.2 7.3 7.8 7.8 7.3 7.0 7.1 7.1 7.0 6.7 6.9 7.0 7.3 7.2 7.0 7.0 7.0 7.2 7.0 6.6 6.1 5.5 5.3
7.6 7.9 8.0 8.1 8.2 7.9 7.7 7.5 7.3 7.2 7.3 7.4 7.5 7.1 6.8 6.4 6.4 6.8 7.0 7.0 7.0 6.9 6.8 6.8 7.0 7.0 7.1 7.2 6.8 6.3 5.6 5.5
7.4 7.3 7.6 8.0 8.2 8.2 8.0 7.6 7.3 7.3 7.3 7.1 7.2 7.0 6.9 6.8 5.7 6.5 6.6 6.6 6.7 6.6 6.8 6.9 7.0 7.0 7.1 7.2 6.8 6.4 5.8 5.4
Wind_Speed
9 14 16 18 18 19 21 20 20 20 20 21 21 22 22 20 19 18 18 17 17 17 17 15 15 15 16 15 12 12 13 10
8 8 12 13 14 18 20 20 20 20 20 21 22 22 22 21 20 19 18 17 18 18 17 16 16 16 17 13 11 10 9 10
7 9 10 14 14 15 18 18 19 19 17 18 19 13 16 18 17 19 19 18 18 17 17 17 15 13 14 14 11 10 10 10
10 10 11 11 12 15 14 14 14 14 13 13 10 11 13 13 15 19 18 19 18 18 17 15 12 9 10 13 9 7 7 10
12 12 13 13 11 11 10 12 11 12 13 12 10 9 10 11 11 13 13 16 12 12 12 9 10 10 9 10 10 9 7 9
12 12 11 11 8 9 9 8 10 7 11 14 10 5 5 5 6 9 10 11 9 11 8 9 9 11 11 9 10 10 10 10
12 11 12 10 9 8 9 10 8 11 10 14 14 6 7 5 5 8 8 11 9 7 7 6 6 8 9 8 7 8 9 10
11 13 12 11 9 10 9 8 10 12 12 15 17 12 6 7 5 4 6 11 11 10 7 4 4 6 4 7 7 8 8 8
13 14 11 13 14 10 8 8 10 9 9 16 18 17 12 9 6 5 6 10 11 10 6 5 3 3 5 5 6 7 7 8
14 12 13 12 12 9 6 6 7 6 8 12 17 16 16 9 7 5 8 9 8 5 6 4 3 4 3 4 3 6 7 8
13 14 15 15 12 8 8 7 6 5 8 9 13 15 15 9 7 6 11 5 6 6 4 5 5 4 3 3 3 3 3 5
16 15 16 15 8 6 6 7 7 5 8 7 13 13 14 9 6 7 10 7 6 6 7 6 4 5 4 4 3 3 3 4
4 11 14 11 10 10 10 12 10 9 8 10 12 13 14 9 7 7 8 9 8 11 6 7 4 6 3 2 3 6 6 5
7 6 8 11 10 10 6 8 7 7 7 8 10 12 14 10 11 9 10 7 9 10 8 3 4 7 3 2 2 2 6 6
12 10 6 11 13 7 3 4 3 4 5 8 11 12 13 13 13 10 10 9 8 9 10 9 6 6 7 4 2 3 2 3
10 11 8 2 9 10 11 9 8 7 8 9 10 15 16 14 13 12 12 10 10 9 9 9 7 6 4 4 1 4 3 1
9 11 9 9 8 2 8 8 6 3 5 10 9 5 8 10 11 10 11 9 9 9 10 9 8 6 6 3 4 2 1 2
11 12 11 10 9 8 5 8 6 6 5 8 7 7 6 8 11 12 12 11 11 10 9 10 8 7 7 5 5 3 4 4
13 12 12 13 11 9 8 7 6 10 10 8 9 7 6 8 9 11 10 11 11 10 10 10 11 10 10 7 5 6 3 4
15 13 12 12 13 12 9 8 5 7 9 7 9 10 12 14 14 13 13 12 11 11 9 9 10 9 10 7 5 6 5 6
Wind_Direction
158 169 169 170 170 170 163 163 164 167 166 163 160 160 162 163 162 163 163 156 152 152 156 157 151 154 157 146 161 163 157 161
165 160 163 166 173 176 169 166 171 172 175 170 167 168 168 169 168 167 166 163 159 158 162 161 158 165 169 168 157 171 167 164
169 170 178 175 180 179 170 171 173 175 178 177 172 168 171 174 173 172 170 168 165 163 167 167 165 165 171 172 159 169 170 172
176 178 182 178 180 179 172 176 176 175 175 175 171 169 169 171 173 178 176 173 172 169 170 168 149 155 170 163 165 165 177 186
187 179 182 185 180 178 176 182 175 170 168 166 164 164 166 165 168 174 173 176 162 156 151 160 170 162 170 174 179 189 199 203
182 182 178 187 180 181 179 181 180 180 173 163 164 171 170 173 169 169 164 169 153 151 164 181 177 181 179 178 176 191 206 221
193 185 181 182 181 181 184 189 183 188 175 170 177 176 189 178 173 167 164 163 160 155 156 171 178 188 192 185 181 178 197 212
190 195 191 171 184 185 185 186 187 188 188 188 184 179 180 192 177 173 167 171 173 176 180 179 180 180 194 200 204 203 197 205
194 196 192 187 189 187 181 185 184 187 190 189 192 187 183 186 184 180 177 171 164 170 157 141 158 177 204 198 202 204 212 204
193 190 196 199 196 184 188 185 184 180 175 185 191 193 183 174 182 185 163 166 169 164 168 166 169 190 200 206 207 202 214 223
186 189 192 199 199 178 177 181 184 181 172 183 193 192 184 179 183 173 163 170 179 175 178 178 183 190 206 210 210 215 211 213
197 194 192 194 186 178 180 175 191 181 190 189 181 189 186 180 176 170 172 182 182 179 184 176 169 190 199 208 219 221 214 213
255 201 197 180 185 187 194 204 192 194 196 194 179 180 182 182 184 174 179 193 188 195 182 179 169 170 144 203 212 223 219 219
350 245 186 192 197 205 200 196 203 202 189 190 183 178 181 183 183 187 189 190 187 188 178 154 176 170 160 120 201 218 229 223
349 326 253 200 197 181 87 101 96 143 181 188 200 192 186 185 183 182 186 193 193 188 184 176 177 190 197 152 179 214 169 192
352 343 4 344 187 173 182 198 199 211 205 209 212 206 187 183 182 184 186 194 191 188 186 187 164 191 208 225 162 149 185 254
357 352 7 12 34 164 177 196 207 179 184 192 192 202 197 180 180 179 189 197 201 185 183 188 195 182 199 156 199 198 149 162
23 3 14 12 33 26 20 204 184 187 188 193 188 176 188 193 185 185 187 189 195 200 195 193 196 197 206 189 178 175 196 202
25 6 6 10 19 18 9 352 309 214 197 191 172 182 177 184 222 205 194 194 194 190 200 204 207 204 202 199 197 207 167 206
18 11 12 10 8 5 357 340 316 292 228 194 192 190 190 174 201 213 208 194 188 188 193 204 198 199 195 194 196 211 199 207